REACH41 EBBR-CYHZ

Flight info

Callsign REACH41
Flight time N/A
Altitude 34000
Route DENUT L610 KOPUL DCT SAM M140 OXLOW DCT LEDGO DCT DINIM/M076F360 DCT 5130N02000W 5130N03000W 51N040W 4830N05000W DCT MUSAK/N0429F380 DCT TIGOR Q846 NOTOP DCT CAYLY CABOT5
Aircraft B737/M-SDE2E3FGHIRWXY/LB1

Departure

Time 2026-05-06 17:50
Airport Brussels Airport (EBBR)

Arrival

Time N/A
Airport Halifax / Stanfield International Airport (CYHZ)
Time Latitude Longitude Altitude Speed Heading
2026-05-06 17:07 50.89830 4.47486 126 ft 0 kts 155°
2026-05-06 17:36 50.89855 4.47467 125 ft 2 kts 156°
2026-05-06 17:36 50.89869 4.47457 125 ft 2 kts 156°
2026-05-06 17:36 50.89883 4.47447 124 ft 2 kts 156°
2026-05-06 17:36 50.89894 4.47439 124 ft 0 kts 155°
2026-05-06 17:37 50.89902 4.47429 123 ft 2 kts 113°
2026-05-06 17:37 50.89904 4.47412 123 ft 0 kts 70°
2026-05-06 17:37 50.89900 4.47402 123 ft 1 kts 64°
2026-05-06 17:37 50.89899 4.47401 123 ft 0 kts 65°
2026-05-06 17:42 50.89910 4.47436 123 ft 6 kts 66°
2026-05-06 17:42 50.89936 4.47527 123 ft 8 kts 66°
2026-05-06 17:43 50.89983 4.47596 122 ft 11 kts 356°
2026-05-06 17:43 50.90074 4.47538 117 ft 14 kts 336°
2026-05-06 17:43 50.90172 4.47486 113 ft 14 kts 16°
2026-05-06 17:43 50.90230 4.47632 114 ft 18 kts 65°
2026-05-06 17:44 50.90253 4.47710 114 ft 17 kts 66°
2026-05-06 17:44 50.90302 4.47880 114 ft 19 kts 65°
2026-05-06 17:44 50.90361 4.48083 114 ft 19 kts 65°
2026-05-06 17:44 50.90421 4.48289 115 ft 20 kts 66°
2026-05-06 17:45 50.90491 4.48531 114 ft 25 kts 65°
2026-05-06 17:45 50.90554 4.48750 116 ft 20 kts 66°
2026-05-06 17:45 50.90608 4.48942 119 ft 17 kts 65°
2026-05-06 17:45 50.90648 4.49110 119 ft 14 kts 103°
2026-05-06 17:46 50.90574 4.49186 125 ft 10 kts 159°
2026-05-06 17:46 50.90513 4.49230 130 ft 13 kts 154°
2026-05-06 17:46 50.90382 4.49326 137 ft 20 kts 155°
2026-05-06 17:46 50.90279 4.49400 140 ft 15 kts 193°
2026-05-06 17:47 50.90156 4.49352 146 ft 22 kts 194°
2026-05-06 17:47 50.90021 4.49298 152 ft 18 kts 195°
2026-05-06 17:47 50.89933 4.49290 152 ft 13 kts 150°
2026-05-06 17:47 50.89839 4.49341 152 ft 15 kts 194°
2026-05-06 17:48 50.89723 4.49292 153 ft 21 kts 195°
2026-05-06 17:48 50.89595 4.49226 154 ft 16 kts 211°
2026-05-06 17:48 50.89485 4.49156 153 ft 17 kts 195°
2026-05-06 17:48 50.89381 4.49113 156 ft 14 kts 195°
2026-05-06 17:49 50.89258 4.49062 157 ft 21 kts 195°
2026-05-06 17:49 50.89149 4.49029 160 ft 9 kts 148°
2026-05-06 17:49 50.89144 4.49081 160 ft 0 kts 70°
2026-05-06 17:49 50.89146 4.49087 160 ft 3 kts 70°
2026-05-06 17:50 50.89257 4.49563 157 ft 96 kts 71°
2026-05-06 17:50 50.89584 4.50996 311 ft 168 kts 68°
2026-05-06 17:50 50.90004 4.52756 1156 ft 175 kts 64°
2026-05-06 17:50 50.90527 4.54383 2151 ft 170 kts 57°
2026-05-06 17:51 50.91418 4.55683 2725 ft 184 kts 26°
2026-05-06 17:51 50.92712 4.56119 3338 ft 202 kts
2026-05-06 17:51 50.94115 4.55672 3951 ft 221 kts 337°
2026-05-06 17:51 50.95278 4.53923 4611 ft 243 kts 305°
2026-05-06 17:52 50.96039 4.51510 5523 ft 251 kts 298°
2026-05-06 17:52 50.96780 4.48964 6232 ft 265 kts 298°
2026-05-06 17:52 50.97609 4.46294 7167 ft 269 kts 300°
2026-05-06 17:52 50.98471 4.43641 8088 ft 273 kts 300°
2026-05-06 17:53 50.99346 4.40991 8994 ft 276 kts 300°
2026-05-06 17:53 51.00239 4.38286 9868 ft 279 kts 300°
2026-05-06 17:53 51.01140 4.35551 10745 ft 284 kts 299°
2026-05-06 17:53 51.02062 4.32743 11687 ft 286 kts 298°
2026-05-06 17:54 51.02980 4.29939 12495 ft 290 kts 298°
2026-05-06 17:54 51.03915 4.27078 13309 ft 294 kts 298°
2026-05-06 17:54 51.04863 4.24174 13936 ft 303 kts 298°
2026-05-06 17:54 51.05872 4.21079 14391 ft 319 kts 298°
2026-05-06 17:55 51.06916 4.17876 14930 ft 332 kts 298°
2026-05-06 17:55 51.07988 4.14586 15681 ft 336 kts 298°
2026-05-06 17:55 51.09063 4.11283 16430 ft 339 kts 298°
2026-05-06 17:55 51.10145 4.07952 17154 ft 343 kts 297°
2026-05-06 17:56 51.11254 4.04537 17900 ft 347 kts 297°
2026-05-06 17:56 51.12352 4.01151 18573 ft 351 kts 297°
2026-05-06 17:56 51.13486 3.97636 19234 ft 355 kts 297°
2026-05-06 17:56 51.14614 3.94140 19901 ft 358 kts 297°
2026-05-06 17:57 51.15758 3.90600 20512 ft 361 kts 297°
2026-05-06 17:57 51.16919 3.87009 21080 ft 365 kts 297°
2026-05-06 17:57 51.18067 3.83452 21624 ft 368 kts 297°
2026-05-06 17:57 51.19248 3.79775 22183 ft 371 kts 296°
2026-05-06 17:58 51.20415 3.76137 22731 ft 374 kts 296°
2026-05-06 17:58 51.21593 3.72457 23260 ft 377 kts 296°
2026-05-06 17:58 51.22719 3.68679 23774 ft 379 kts 292°
2026-05-06 17:58 51.23615 3.64718 24285 ft 382 kts 287°
2026-05-06 17:59 51.24321 3.60631 24781 ft 385 kts 284°
2026-05-06 17:59 51.24925 3.56502 25300 ft 387 kts 282°
2026-05-06 17:59 51.25492 3.52291 25822 ft 389 kts 281°
2026-05-06 17:59 51.26043 3.48045 26301 ft 392 kts 281°
2026-05-06 18:00 51.26584 3.43838 26765 ft 394 kts 281°
2026-05-06 18:00 51.27139 3.39515 27236 ft 396 kts 281°
2026-05-06 18:00 51.27683 3.35257 27642 ft 400 kts 281°
2026-05-06 18:00 51.28242 3.30867 28103 ft 402 kts 281°
2026-05-06 18:01 51.28795 3.26512 28495 ft 405 kts 281°
2026-05-06 18:01 51.29354 3.22104 28937 ft 407 kts 281°
2026-05-06 18:01 51.29916 3.17665 29326 ft 409 kts 281°
2026-05-06 18:01 51.30478 3.13230 29742 ft 411 kts 281°
2026-05-06 18:02 51.31036 3.08816 30376 ft 407 kts 281°
2026-05-06 18:02 51.31590 3.04420 30900 ft 406 kts 281°
2026-05-06 18:02 51.32143 3.00027 31361 ft 405 kts 281°
2026-05-06 18:02 51.32700 2.95588 31753 ft 405 kts 281°
2026-05-06 18:03 51.33249 2.91194 32171 ft 404 kts 281°
2026-05-06 18:03 51.33793 2.86835 32586 ft 403 kts 281°
2026-05-06 18:03 51.34334 2.82483 32970 ft 403 kts 281°
2026-05-06 18:03 51.34878 2.78094 33348 ft 402 kts 281°
2026-05-06 18:04 51.35416 2.73738 33694 ft 402 kts 281°
2026-05-06 18:04 51.35953 2.69386 33933 ft 403 kts 281°
2026-05-06 18:04 51.37030 2.60646 33963 ft 398 kts 281°
2026-05-06 18:05 51.38091 2.51980 33963 ft 399 kts 281°
2026-05-06 18:05 51.39148 2.43284 33960 ft 399 kts 281°
2026-05-06 18:06 51.40195 2.34620 33969 ft 400 kts 280°
2026-05-06 18:06 51.41263 2.25721 33972 ft 412 kts 280°
2026-05-06 18:07 51.42364 2.16647 33964 ft 424 kts 281°
2026-05-06 18:07 51.43509 2.07262 33959 ft 436 kts 281°
2026-05-06 18:08 51.44666 1.97709 33956 ft 437 kts 281°
2026-05-06 18:08 51.45792 1.88213 33956 ft 437 kts 281°
2026-05-06 18:09 51.46904 1.78659 33950 ft 437 kts 281°
2026-05-06 18:09 51.47997 1.69152 33954 ft 435 kts 281°
2026-05-06 18:10 51.49083 1.59635 33957 ft 434 kts 281°
2026-05-06 18:10 51.50162 1.50120 33957 ft 434 kts 281°
2026-05-06 18:11 51.51234 1.40613 33956 ft 435 kts 281°
2026-05-06 18:11 51.52296 1.31112 33957 ft 435 kts 280°
2026-05-06 18:12 51.53341 1.21580 33958 ft 435 kts 278°
2026-05-06 18:12 51.53490 1.11927 33962 ft 435 kts 262°
2026-05-06 18:13 51.51884 1.02613 33962 ft 435 kts 251°
2026-05-06 18:13 51.49815 0.93496 33970 ft 435 kts 250°
2026-05-06 18:14 51.47707 0.84450 33971 ft 435 kts 250°
2026-05-06 18:14 51.45610 0.75385 33975 ft 435 kts 251°
2026-05-06 18:15 51.43520 0.66286 33974 ft 435 kts 251°
2026-05-06 18:15 51.41434 0.57189 33974 ft 435 kts 251°
2026-05-06 18:16 51.39357 0.48150 33974 ft 435 kts 251°
2026-05-06 18:16 51.37268 0.39084 33975 ft 435 kts 251°
2026-05-06 18:17 51.35170 0.30016 33977 ft 435 kts 250°
2026-05-06 18:17 51.33062 0.20944 33979 ft 435 kts 250°
2026-05-06 18:18 51.30959 0.11933 33976 ft 434 kts 250°
2026-05-06 18:18 51.28849 0.02938 33978 ft 435 kts 250°
2026-05-06 18:19 51.27047 -0.06251 33976 ft 433 kts 263°
2026-05-06 18:19 51.27043 -0.15822 33982 ft 433 kts 274°
2026-05-06 18:20 51.27522 -0.25327 33975 ft 433 kts 275°
2026-05-06 18:20 51.27958 -0.34922 33983 ft 432 kts 274°
2026-05-06 18:21 51.28298 -0.44467 33979 ft 432 kts 273°
2026-05-06 18:21 51.28438 -0.49172 33976 ft 418 kts 273°
2026-05-06 18:21 51.28561 -0.53702 33994 ft 413 kts 273°
2026-05-06 18:22 51.28679 -0.58318 34189 ft 417 kts 273°
2026-05-06 18:22 51.28789 -0.62902 34416 ft 420 kts 273°
2026-05-06 18:22 51.28897 -0.67568 34651 ft 423 kts 272°
2026-05-06 18:22 51.29003 -0.72281 34888 ft 424 kts 272°
2026-05-06 18:23 51.29105 -0.76981 35069 ft 424 kts 272°
2026-05-06 18:23 51.29206 -0.81676 35210 ft 422 kts 272°
2026-05-06 18:23 51.29303 -0.86355 35460 ft 422 kts 272°
2026-05-06 18:23 51.29398 -0.90975 35640 ft 423 kts 272°
2026-05-06 18:24 51.29491 -0.95653 35823 ft 423 kts 272°
2026-05-06 18:24 51.29584 -1.00362 35948 ft 424 kts 272°
2026-05-06 18:24 51.29764 -1.09826 35984 ft 434 kts 272°
2026-05-06 18:25 51.29941 -1.19515 35985 ft 433 kts 272°
2026-05-06 18:25 51.30107 -1.29054 35993 ft 432 kts 272°
2026-05-06 18:26 51.30266 -1.38644 35992 ft 433 kts 272°
2026-05-06 18:26 51.30416 -1.48159 35995 ft 431 kts 272°
2026-05-06 18:27 51.30560 -1.57752 35994 ft 431 kts 272°
2026-05-06 18:27 51.30695 -1.67324 35995 ft 432 kts 271°
2026-05-06 18:28 51.30823 -1.76861 35991 ft 431 kts 271°
2026-05-06 18:28 51.30942 -1.86394 35998 ft 432 kts 271°
2026-05-06 18:29 51.31054 -1.95919 35993 ft 431 kts 271°
2026-05-06 18:29 51.31158 -2.05505 35988 ft 432 kts 271°
2026-05-06 18:30 51.31255 -2.15072 35978 ft 432 kts 271°
2026-05-06 18:30 51.31343 -2.24622 35978 ft 432 kts 271°
2026-05-06 18:31 51.31424 -2.34182 35987 ft 432 kts 271°
2026-05-06 18:31 51.31497 -2.43760 35987 ft 433 kts 271°
2026-05-06 18:32 51.31562 -2.53314 35987 ft 433 kts 271°
2026-05-06 18:32 51.31620 -2.62926 35990 ft 434 kts 271°
2026-05-06 18:33 51.31670 -2.72552 35989 ft 435 kts 271°
2026-05-06 18:33 51.31712 -2.82179 35800 ft 434 kts 271°
2026-05-06 18:34 51.31730 -2.86978 35918 ft 434 kts 271°
2026-05-06 18:34 51.31747 -2.91805 35967 ft 437 kts 271°
2026-05-06 18:34 51.31773 -3.01433 35984 ft 437 kts 271°
2026-05-06 18:35 51.31791 -3.11119 35989 ft 437 kts 271°
2026-05-06 18:35 51.31802 -3.20817 35995 ft 437 kts 271°
2026-05-06 18:36 51.31805 -3.30458 35995 ft 437 kts 271°
2026-05-06 18:36 51.31799 -3.40149 35998 ft 438 kts 271°
2026-05-06 18:37 51.31786 -3.49870 35995 ft 438 kts 271°
2026-05-06 18:37 51.31764 -3.59513 36000 ft 437 kts 271°
2026-05-06 18:38 51.31735 -3.69209 36000 ft 437 kts 270°
2026-05-06 18:38 51.31697 -3.78887 36001 ft 437 kts 270°
2026-05-06 18:39 51.31652 -3.88550 36007 ft 437 kts 270°
2026-05-06 18:40 51.31570 -4.03050 36007 ft 438 kts 270°
2026-05-06 18:40 51.31504 -4.12763 36007 ft 438 kts 270°
2026-05-06 18:41 51.31431 -4.22487 36003 ft 439 kts 270°
2026-05-06 18:41 51.31349 -4.32200 36002 ft 438 kts 270°
2026-05-06 18:42 51.31259 -4.41917 35998 ft 438 kts 270°
2026-05-06 18:42 51.31162 -4.51588 35996 ft 438 kts 270°
2026-05-06 18:43 51.31057 -4.61277 35994 ft 439 kts 271°
2026-05-06 18:43 51.30943 -4.70993 35988 ft 439 kts 270°
2026-05-06 18:44 51.30821 -4.80734 35987 ft 438 kts 270°
2026-05-06 18:44 51.30691 -4.90429 35983 ft 439 kts 270°
2026-05-06 18:45 51.30554 -5.00109 35980 ft 439 kts 270°
2026-05-06 18:45 51.30408 -5.09865 35977 ft 440 kts 270°
2026-05-06 18:46 51.30254 -5.19569 35977 ft 440 kts 270°
2026-05-06 18:46 51.30090 -5.29358 35978 ft 440 kts 270°
2026-05-06 18:47 51.29921 -5.39033 35978 ft 440 kts 270°
2026-05-06 18:47 51.29742 -5.48808 35983 ft 441 kts 270°
2026-05-06 18:48 51.29556 -5.58537 35986 ft 441 kts 270°
2026-05-06 18:48 51.29359 -5.68341 35988 ft 442 kts 269°
2026-05-06 18:49 51.29156 -5.78083 35989 ft 443 kts 269°
2026-05-06 18:49 51.28944 -5.87885 35987 ft 442 kts 269°
2026-05-06 18:50 51.28724 -5.97688 35990 ft 443 kts 269°
2026-05-06 18:50 51.28495 -6.07449 35988 ft 443 kts 269°
2026-05-06 18:51 51.28259 -6.17223 35989 ft 443 kts 269°
2026-05-06 18:51 51.28014 -6.27027 35988 ft 444 kts 269°
2026-05-06 18:52 51.27760 -6.36846 35989 ft 445 kts 269°
2026-05-06 18:52 51.27496 -6.46729 35990 ft 445 kts 270°
2026-05-06 18:53 51.27226 -6.56557 35987 ft 446 kts 270°
2026-05-06 18:53 51.26946 -6.66392 35990 ft 446 kts 269°
2026-05-06 18:54 51.26658 -6.76284 35988 ft 447 kts 269°
2026-05-06 18:54 51.26360 -6.86168 35991 ft 448 kts 269°
2026-05-06 18:55 51.26054 -6.96073 35987 ft 448 kts 269°
2026-05-06 18:55 51.25740 -7.05940 35992 ft 449 kts 269°
2026-05-06 18:56 51.25418 -7.15830 35988 ft 449 kts 269°
2026-05-06 18:56 51.25085 -7.25777 35990 ft 450 kts 269°
2026-05-06 18:57 51.24744 -7.35719 35991 ft 450 kts 269°
2026-05-06 18:57 51.24397 -7.45594 35990 ft 450 kts 269°
2026-05-06 18:58 51.24038 -7.55563 35989 ft 451 kts 269°
2026-05-06 18:58 51.23834 -7.65528 35987 ft 451 kts 271°
2026-05-06 18:59 51.23847 -7.75484 35992 ft 452 kts 272°
2026-05-06 18:59 51.23878 -7.85492 35984 ft 452 kts 272°
2026-05-06 19:00 51.23880 -7.95517 35993 ft 453 kts 271°
2026-05-06 19:00 51.23857 -8.05499 35988 ft 454 kts 271°
2026-05-06 19:01 51.23815 -8.15509 35991 ft 455 kts 272°
2026-05-06 19:01 51.23758 -8.25558 35984 ft 454 kts 271°
2026-05-06 19:02 51.23690 -8.35650 35983 ft 455 kts 271°
2026-05-06 19:02 51.23614 -8.45657 35985 ft 456 kts 271°
2026-05-06 19:03 51.23528 -8.55731 35985 ft 455 kts 271°
2026-05-06 19:03 51.23434 -8.65823 35989 ft 457 kts 271°
2026-05-06 19:04 51.23331 -8.75917 35991 ft 457 kts 271°
2026-05-06 19:04 51.23220 -8.85990 35990 ft 458 kts 271°
2026-05-06 19:05 51.23098 -8.96131 35988 ft 459 kts 271°
2026-05-06 19:05 51.22968 -9.06240 35987 ft 459 kts 271°
2026-05-06 19:06 51.22829 -9.16391 35991 ft 458 kts 271°
2026-05-06 19:06 51.22684 -9.26454 35987 ft 459 kts 271°
2026-05-06 19:07 51.22528 -9.36605 35994 ft 460 kts 271°
2026-05-06 19:07 51.22363 -9.46753 35995 ft 460 kts 271°
2026-05-06 19:08 51.22189 -9.56929 35994 ft 461 kts 271°
2026-05-06 19:08 51.22006 -9.67091 35998 ft 461 kts 270°
2026-05-06 19:09 51.21813 -9.77297 35996 ft 461 kts 270°
2026-05-06 19:09 51.21612 -9.87468 36004 ft 462 kts 270°
2026-05-06 19:10 51.21402 -9.97695 36005 ft 462 kts 270°
2026-05-06 19:10 51.21184 -10.07857 36002 ft 462 kts 270°
2026-05-06 19:11 51.20956 -10.18053 36005 ft 463 kts 270°
2026-05-06 19:11 51.20718 -10.28287 36006 ft 462 kts 270°
2026-05-06 19:12 51.20472 -10.38488 36012 ft 463 kts 270°
2026-05-06 19:12 51.20217 -10.48701 36007 ft 463 kts 270°
2026-05-06 19:13 51.19952 -10.58917 36012 ft 463 kts 270°
2026-05-06 19:13 51.19680 -10.69090 36011 ft 463 kts 269°
2026-05-06 19:14 51.19399 -10.79332 36006 ft 465 kts 269°
2026-05-06 19:14 51.19107 -10.89567 36012 ft 464 kts 269°
2026-05-06 19:15 51.18806 -10.99846 36001 ft 465 kts 269°
2026-05-06 19:15 51.18497 -11.10065 36015 ft 464 kts 269°
2026-05-06 19:16 51.18179 -11.20269 36011 ft 464 kts 269°
2026-05-06 19:16 51.17851 -11.30540 36011 ft 465 kts 269°
2026-05-06 19:17 51.17516 -11.40750 36005 ft 465 kts 269°
2026-05-06 19:17 51.17170 -11.51003 36000 ft 465 kts 269°
2026-05-06 19:18 51.16817 -11.61201 36010 ft 464 kts 269°
2026-05-06 19:18 51.16454 -11.71434 36003 ft 465 kts 268°
2026-05-06 19:19 51.16082 -11.81667 36003 ft 464 kts 268°
2026-05-06 19:19 51.15702 -11.91869 36012 ft 465 kts 268°
2026-05-06 19:20 51.15310 -12.02142 36003 ft 463 kts 268°
2026-05-06 19:20 51.14913 -12.12323 36004 ft 464 kts 268°
2026-05-06 19:21 51.14506 -12.22539 36000 ft 463 kts 268°
2026-05-06 19:21 51.14091 -12.32724 36004 ft 463 kts 268°
2026-05-06 19:22 51.13669 -12.42889 36000 ft 464 kts 268°
2026-05-06 19:22 51.13232 -12.53168 36000 ft 464 kts 268°
2026-05-06 19:23 51.12791 -12.63307 35993 ft 464 kts 268°
2026-05-06 19:23 51.12340 -12.73500 35996 ft 463 kts 268°
2026-05-06 19:24 51.11882 -12.83644 35989 ft 462 kts 268°
2026-05-06 19:24 51.11412 -12.93865 35990 ft 463 kts 268°
2026-05-06 19:25 51.10935 -13.04063 35984 ft 463 kts 268°
2026-05-06 19:25 51.10448 -13.14237 35986 ft 464 kts 268°
2026-05-06 19:26 51.09954 -13.24386 35989 ft 464 kts 268°
2026-05-06 19:26 51.09451 -13.34530 35990 ft 462 kts 268°
2026-05-06 19:27 51.08938 -13.44711 35990 ft 461 kts 268°
2026-05-06 19:27 51.08422 -13.54785 35987 ft 461 kts 268°
2026-05-06 19:28 51.07892 -13.64969 35987 ft 462 kts 267°
2026-05-06 19:28 51.07354 -13.75104 35987 ft 462 kts 266°
2026-05-06 19:29 51.06810 -13.85190 35992 ft 461 kts 266°
2026-05-06 19:29 51.06256 -13.95295 35986 ft 461 kts 266°
2026-05-06 19:30 51.05692 -14.05425 35990 ft 461 kts 266°
2026-05-06 19:30 51.05122 -14.15510 35994 ft 460 kts 266°
2026-05-06 19:31 51.04543 -14.25581 35986 ft 459 kts 266°
2026-05-06 19:31 51.03662 -14.40656 35991 ft 459 kts 266°
2026-05-06 19:32 51.03064 -14.50684 35991 ft 458 kts 266°
2026-05-06 19:32 51.02454 -14.60755 35990 ft 458 kts 266°
2026-05-06 19:33 51.01842 -14.70744 35996 ft 458 kts 265°
2026-05-06 19:33 51.01220 -14.80745 35995 ft 457 kts 265°
2026-05-06 19:34 51.00588 -14.90763 36014 ft 457 kts 265°
2026-05-06 19:34 51.00298 -15.00699 36005 ft 454 kts 274°
2026-05-06 19:35 51.01038 -15.10625 36006 ft 453 kts 281°
2026-05-06 19:35 51.02235 -15.20345 36000 ft 451 kts 283°
2026-05-06 19:36 51.03511 -15.30055 35993 ft 451 kts 283°
2026-05-06 19:36 51.04751 -15.39807 35993 ft 451 kts 283°
2026-05-06 19:37 51.05946 -15.49570 35988 ft 451 kts 282°
2026-05-06 19:37 51.07104 -15.59293 35984 ft 449 kts 282°
2026-05-06 19:38 51.08244 -15.69013 35975 ft 449 kts 281°
2026-05-06 19:38 51.09369 -15.78702 35979 ft 450 kts 281°
2026-05-06 19:39 51.10491 -15.88469 35974 ft 449 kts 281°
2026-05-06 19:39 51.11598 -15.98179 35969 ft 449 kts 281°
2026-05-06 19:40 51.12703 -16.07941 35967 ft 448 kts 281°
2026-05-06 19:40 51.13792 -16.17644 35967 ft 448 kts 281°
2026-05-06 19:41 51.14874 -16.27364 35966 ft 449 kts 281°
2026-05-06 19:41 51.15955 -16.37143 35966 ft 448 kts 281°
2026-05-06 19:42 51.17020 -16.46862 35968 ft 447 kts 280°
2026-05-06 19:42 51.18061 -16.56443 35972 ft 440 kts 280°
2026-05-06 19:43 51.19101 -16.66082 35971 ft 443 kts 279°
2026-05-06 19:43 51.20130 -16.75698 35972 ft 443 kts 279°
2026-05-06 19:44 51.21149 -16.85295 35968 ft 443 kts 279°
2026-05-06 19:44 51.22169 -16.94978 35969 ft 444 kts 279°
2026-05-06 19:45 51.23175 -17.04619 35967 ft 443 kts 279°
2026-05-06 19:45 51.24174 -17.14264 35966 ft 442 kts 279°
2026-05-06 19:46 51.25159 -17.23861 35965 ft 442 kts 279°
2026-05-06 19:46 51.26143 -17.33530 35966 ft 442 kts 279°
2026-05-06 19:47 51.27114 -17.43146 35966 ft 442 kts 278°
2026-05-06 19:47 51.28081 -17.52804 35966 ft 442 kts 278°
2026-05-06 19:48 51.29041 -17.62477 35966 ft 442 kts 278°
2026-05-06 19:48 51.29994 -17.72164 35966 ft 442 kts 277°
2026-05-06 19:49 51.30931 -17.81778 35965 ft 442 kts 277°
2026-05-06 19:49 51.31869 -17.91478 35966 ft 443 kts 277°
2026-05-06 19:50 51.32796 -18.01150 35970 ft 443 kts 277°
2026-05-06 19:50 51.33715 -18.10832 35976 ft 442 kts 277°
2026-05-06 19:51 51.34624 -18.20492 35980 ft 442 kts 277°
2026-05-06 19:51 51.35528 -18.30184 35981 ft 442 kts 277°
2026-05-06 19:52 51.36428 -18.39931 35981 ft 442 kts 277°
2026-05-06 19:52 51.37310 -18.49578 35979 ft 442 kts 277°
2026-05-06 19:53 51.38186 -18.59255 35981 ft 442 kts 276°
2026-05-06 19:53 51.39059 -18.68984 35980 ft 442 kts 276°
2026-05-06 19:54 51.39920 -18.78676 35979 ft 442 kts 276°
2026-05-06 19:54 51.40772 -18.88356 35979 ft 441 kts 276°
2026-05-06 19:55 51.41618 -18.98057 35977 ft 441 kts 276°
2026-05-06 19:55 51.42453 -19.07732 35977 ft 440 kts 276°
2026-05-06 19:56 51.43281 -19.17407 35983 ft 440 kts 276°
2026-05-06 19:56 51.44096 -19.27039 35975 ft 439 kts 276°
2026-05-06 19:57 51.44907 -19.36698 35972 ft 438 kts 276°
2026-05-06 19:57 51.45706 -19.46334 35976 ft 438 kts 276°
2026-05-06 19:58 51.46495 -19.55946 35982 ft 436 kts 276°
2026-05-06 19:58 51.47273 -19.65533 35973 ft 436 kts 275°
2026-05-06 19:59 51.48043 -19.75104 35978 ft 434 kts 275°
2026-05-06 19:59 51.48804 -19.84674 35980 ft 435 kts 275°
2026-05-06 20:00 51.49558 -19.94253 35971 ft 434 kts 275°
2026-05-06 20:00 51.50267 -20.03855 35982 ft 433 kts 274°
2026-05-06 20:01 51.50696 -20.13393 35981 ft 432 kts 272°
2026-05-06 20:01 51.51033 -20.22974 35983 ft 432 kts 272°
2026-05-06 20:02 51.51379 -20.32608 35984 ft 432 kts 272°
2026-05-06 20:02 51.51737 -20.42186 35985 ft 431 kts 272°
2026-05-06 20:03 51.52099 -20.51730 35984 ft 431 kts 272°
2026-05-06 20:03 51.52456 -20.61274 35984 ft 430 kts 272°
2026-05-06 20:04 51.52808 -20.70833 36072 ft 431 kts 272°
2026-05-06 20:04 51.52980 -20.75571 36464 ft 424 kts 272°
2026-05-06 20:04 51.53147 -20.80224 37012 ft 416 kts 272°
2026-05-06 20:05 51.53311 -20.84825 37560 ft 407 kts 272°
2026-05-06 20:05 51.53469 -20.89297 37905 ft 402 kts 272°
2026-05-06 20:05 51.53778 -20.98242 37974 ft 408 kts 272°
2026-05-06 20:06 51.54086 -21.07397 37977 ft 416 kts 272°
2026-05-06 20:06 51.54393 -21.16735 37972 ft 424 kts 272°
2026-05-06 20:07 51.54699 -21.26242 37971 ft 427 kts 272°
2026-05-06 20:07 51.54996 -21.35691 37967 ft 425 kts 272°
2026-05-06 20:08 51.55284 -21.45110 37973 ft 424 kts 272°
2026-05-06 20:08 51.55566 -21.54554 37957 ft 424 kts 272°
2026-05-06 20:09 51.55840 -21.63997 37961 ft 426 kts 272°
2026-05-06 20:09 51.56107 -21.73486 37960 ft 425 kts 271°
2026-05-06 20:10 51.56364 -21.82886 37952 ft 425 kts 271°
2026-05-06 20:10 51.56616 -21.92337 37966 ft 426 kts 271°
2026-05-06 20:11 51.56860 -22.01814 37962 ft 425 kts 272°
2026-05-06 20:11 51.57095 -22.11261 37957 ft 426 kts 271°
2026-05-06 20:12 51.57323 -22.20732 37957 ft 426 kts 271°
2026-05-06 20:12 51.57544 -22.30171 37949 ft 426 kts 271°
2026-05-06 20:13 51.57760 -22.39698 37958 ft 427 kts 272°
2026-05-06 20:13 51.57965 -22.49132 37959 ft 426 kts 272°
2026-05-06 20:14 51.58163 -22.58596 37955 ft 426 kts 272°
2026-05-06 20:14 51.58354 -22.68109 37959 ft 428 kts 271°
2026-05-06 20:15 51.58538 -22.77646 37959 ft 426 kts 271°
2026-05-06 20:15 51.58715 -22.87197 37951 ft 427 kts 271°
2026-05-06 20:16 51.58882 -22.96654 37954 ft 427 kts 271°
2026-05-06 20:16 51.59042 -23.06165 37952 ft 428 kts 271°
2026-05-06 20:17 51.59195 -23.15669 37950 ft 428 kts 271°
2026-05-06 20:17 51.59340 -23.25207 37946 ft 428 kts 271°
2026-05-06 20:18 51.59478 -23.34781 37945 ft 428 kts 271°
2026-05-06 20:18 51.59609 -23.44296 37939 ft 429 kts 271°
2026-05-06 20:19 51.59731 -23.53875 37938 ft 429 kts 271°
2026-05-06 20:19 51.59846 -23.63440 37933 ft 428 kts 271°
2026-05-06 20:20 51.59954 -23.72975 37930 ft 429 kts 270°
2026-05-06 20:20 51.60053 -23.82569 37933 ft 429 kts 270°
2026-05-06 20:21 51.60144 -23.92164 37936 ft 429 kts 270°
2026-05-06 20:21 51.60228 -24.01738 37931 ft 429 kts 271°
2026-05-06 20:22 51.60304 -24.11321 37937 ft 430 kts 270°
2026-05-06 20:22 51.60372 -24.20911 37935 ft 430 kts 270°
2026-05-06 20:23 51.60432 -24.30429 37932 ft 430 kts 270°
2026-05-06 20:23 51.60486 -24.40074 37927 ft 430 kts 270°
2026-05-06 20:24 51.60530 -24.49622 37925 ft 430 kts 270°
2026-05-06 20:24 51.60567 -24.59202 37923 ft 431 kts 271°
2026-05-06 20:25 51.60597 -24.68803 37921 ft 431 kts 270°
2026-05-06 20:25 51.60618 -24.78433 37921 ft 431 kts 270°
2026-05-06 20:26 51.60632 -24.88081 37922 ft 432 kts 270°
2026-05-06 20:26 51.60638 -24.97653 37919 ft 431 kts 270°
2026-05-06 20:27 51.60636 -25.07253 37909 ft 431 kts 270°
2026-05-06 20:27 51.60626 -25.16855 37905 ft 431 kts 270°
2026-05-06 20:28 51.60609 -25.26516 37908 ft 432 kts 270°
2026-05-06 20:28 51.60583 -25.36161 37908 ft 433 kts 270°
2026-05-06 20:29 51.60549 -25.45798 37907 ft 434 kts 270°
2026-05-06 20:29 51.60506 -25.55528 37909 ft 435 kts 270°
2026-05-06 20:30 51.60429 -25.70120 37900 ft 436 kts 269°
2026-05-06 20:31 51.60367 -25.79874 37898 ft 435 kts 269°
2026-05-06 20:31 51.60297 -25.89595 37896 ft 436 kts 269°
2026-05-06 20:32 51.60218 -25.99436 37893 ft 438 kts 269°
2026-05-06 20:32 51.60131 -26.09279 37894 ft 438 kts 269°
2026-05-06 20:33 51.60036 -26.19063 37898 ft 440 kts 269°
2026-05-06 20:33 51.59932 -26.28907 37894 ft 438 kts 269°
2026-05-06 20:34 51.59821 -26.38700 37894 ft 438 kts 269°
2026-05-06 20:34 51.59701 -26.48505 37894 ft 438 kts 269°
2026-05-06 20:35 51.59573 -26.58305 37892 ft 437 kts 270°
2026-05-06 20:35 51.59437 -26.68126 37889 ft 439 kts 269°
2026-05-06 20:36 51.59293 -26.77934 37887 ft 439 kts 269°
2026-05-06 20:36 51.59140 -26.87729 37889 ft 440 kts 269°
2026-05-06 20:37 51.58979 -26.97555 37887 ft 440 kts 269°
2026-05-06 20:37 51.58811 -27.07360 37878 ft 440 kts 269°
2026-05-06 20:38 51.58633 -27.17179 37868 ft 439 kts 269°
2026-05-06 20:38 51.58448 -27.27002 37867 ft 440 kts 269°
2026-05-06 20:39 51.58254 -27.36830 37872 ft 439 kts 269°
2026-05-06 20:39 51.58052 -27.46679 37871 ft 440 kts 269°
2026-05-06 20:40 51.57842 -27.56495 37878 ft 441 kts 269°
2026-05-06 20:40 51.57621 -27.66413 37875 ft 441 kts 269°
2026-05-06 20:41 51.57395 -27.76227 37872 ft 441 kts 269°
2026-05-06 20:41 51.57158 -27.86156 37878 ft 442 kts 269°
2026-05-06 20:42 51.56913 -27.96006 37884 ft 442 kts 269°
2026-05-06 20:42 51.56660 -28.05904 37887 ft 442 kts 269°
2026-05-06 20:43 51.56399 -28.15750 37894 ft 441 kts 269°
2026-05-06 20:43 51.56131 -28.25577 37895 ft 442 kts 269°
2026-05-06 20:44 51.55854 -28.35449 37897 ft 442 kts 269°
2026-05-06 20:44 51.55569 -28.45290 37898 ft 442 kts 269°
2026-05-06 20:45 51.55276 -28.55119 37892 ft 443 kts 269°
2026-05-06 20:45 51.54973 -28.65004 37894 ft 442 kts 269°
2026-05-06 20:46 51.54661 -28.74886 37903 ft 441 kts 268°
2026-05-06 20:46 51.54343 -28.84743 37903 ft 441 kts 268°
2026-05-06 20:47 51.54017 -28.94562 37908 ft 441 kts 269°
2026-05-06 20:47 51.53683 -29.04371 37907 ft 441 kts 269°
2026-05-06 20:48 51.53338 -29.14268 37916 ft 442 kts 269°
2026-05-06 20:48 51.52988 -29.24086 37919 ft 443 kts 269°
2026-05-06 20:49 51.52625 -29.34012 37920 ft 443 kts 269°
2026-05-06 20:49 51.52256 -29.43886 37919 ft 441 kts 269°
2026-05-06 20:50 51.51879 -29.53707 37920 ft 441 kts 269°
2026-05-06 20:50 51.51496 -29.63516 37925 ft 441 kts 269°
2026-05-06 20:51 51.51102 -29.73394 37923 ft 442 kts 268°
2026-05-06 20:51 51.50702 -29.83199 37930 ft 442 kts 268°
2026-05-06 20:52 51.50292 -29.93062 37928 ft 443 kts 268°
2026-05-06 20:52 51.49894 -30.02995 37931 ft 443 kts 269°
2026-05-06 20:53 51.49757 -30.12874 37926 ft 444 kts 271°
2026-05-06 20:53 51.49726 -30.22731 37924 ft 443 kts 272°
2026-05-06 20:54 51.49680 -30.32637 37929 ft 443 kts 272°
2026-05-06 20:54 51.49604 -30.42527 37933 ft 442 kts 271°
2026-05-06 20:55 51.49506 -30.52342 37936 ft 442 kts 271°
2026-05-06 20:55 51.49394 -30.62162 37940 ft 443 kts 271°
2026-05-06 20:56 51.49269 -30.72092 37958 ft 445 kts 271°
2026-05-06 20:56 51.49135 -30.82036 37955 ft 444 kts 271°
2026-05-06 20:57 51.48992 -30.91917 37971 ft 445 kts 271°
2026-05-06 20:57 51.48840 -31.01838 37974 ft 445 kts 271°
2026-05-06 20:58 51.48679 -31.11768 37972 ft 445 kts 271°
2026-05-06 20:58 51.48511 -31.21619 37978 ft 445 kts 271°
2026-05-06 20:59 51.48333 -31.31542 37981 ft 444 kts 271°
2026-05-06 20:59 51.48148 -31.41444 37980 ft 445 kts 271°
2026-05-06 21:00 51.47956 -31.51307 37988 ft 444 kts 271°
2026-05-06 21:00 51.47755 -31.61205 37992 ft 446 kts 271°
2026-05-06 21:01 51.47545 -31.71091 37994 ft 446 kts 270°
2026-05-06 21:01 51.47325 -31.81044 37999 ft 446 kts 270°
2026-05-06 21:02 51.47097 -31.90956 37998 ft 447 kts 270°
2026-05-06 21:02 51.46860 -32.00913 38006 ft 445 kts 270°
2026-05-06 21:03 51.46617 -32.10778 38009 ft 445 kts 270°
2026-05-06 21:03 51.46366 -32.20690 38015 ft 445 kts 270°
2026-05-06 21:04 51.46106 -32.30583 38019 ft 444 kts 270°
2026-05-06 21:04 51.45839 -32.40406 38019 ft 444 kts 270°
2026-05-06 21:05 51.45562 -32.50300 38017 ft 444 kts 270°
2026-05-06 21:05 51.45278 -32.60171 38018 ft 443 kts 270°
2026-05-06 21:06 51.44986 -32.70042 38023 ft 444 kts 270°
2026-05-06 21:06 51.44686 -32.79871 38024 ft 443 kts 270°
2026-05-06 21:07 51.44378 -32.89684 38029 ft 444 kts 270°
2026-05-06 21:07 51.44062 -32.99497 38023 ft 444 kts 270°
2026-05-06 21:08 51.43737 -33.09338 38021 ft 444 kts 270°
2026-05-06 21:08 51.43403 -33.19178 38024 ft 443 kts 270°
2026-05-06 21:09 51.43061 -33.29014 38027 ft 444 kts 270°
2026-05-06 21:09 51.42712 -33.38812 38029 ft 443 kts 270°
2026-05-06 21:10 51.42355 -33.48635 38028 ft 443 kts 270°
2026-05-06 21:10 51.41989 -33.58477 38035 ft 444 kts 270°
2026-05-06 21:11 51.41616 -33.68285 38036 ft 444 kts 269°
2026-05-06 21:11 51.41233 -33.78133 38037 ft 443 kts 269°
2026-05-06 21:12 51.40844 -33.87915 38046 ft 443 kts 269°
2026-05-06 21:12 51.40447 -33.97699 38040 ft 442 kts 270°
2026-05-06 21:13 51.40038 -34.07547 38035 ft 443 kts 270°
2026-05-06 21:13 51.39624 -34.17332 38042 ft 442 kts 270°
2026-05-06 21:14 51.39201 -34.27115 38047 ft 443 kts 270°
2026-05-06 21:14 51.38771 -34.36897 38049 ft 442 kts 270°
2026-05-06 21:15 51.38333 -34.46669 38051 ft 441 kts 270°
2026-05-06 21:15 51.37889 -34.56388 38054 ft 440 kts 270°
2026-05-06 21:16 51.37436 -34.66150 38052 ft 441 kts 269°
2026-05-06 21:16 51.36977 -34.75853 38056 ft 441 kts 269°